| time (UTC) | temp F | wind direction | speed knots | gust knots | rain 1hr in | rain 24hr in | rain mn in | humidity % | barometer mb |
| 20260901203347 | 80 | 268 | 7.0 | 11.3 | 0.00 | 0.00 | 0.00 | 49 | |
| 20260901203145 | 79 | 264 | 8.7 | 13.0 | 0.00 | 0.00 | 0.00 | 49 | |
| 20260901202943 | 79 | 279 | 6.1 | 13.0 | 0.00 | 0.00 | 0.00 | 48 | |
| 20260901202740 | 79 | 261 | 5.2 | 13.0 | 0.00 | 0.00 | 0.00 | 49 | |
| 20260901202338 | 79 | 293 | 6.1 | 13.0 | 0.00 | 0.00 | 0.00 | 48 | |
| 20260901201934 | 80 | 261 | 8.7 | 12.2 | 0.00 | 0.00 | 0.00 | 47 | |
| 20260901201732 | 80 | 278 | 6.1 | 13.0 | 0.00 | 0.00 | 0.00 | 46 | |
| 20260901201530 | 80 | 261 | 8.7 | 13.0 | 0.00 | 0.00 | 0.00 | 47 | |
| 20260901201126 | 79 | 258 | 7.8 | 11.3 | 0.00 | 0.00 | 0.00 | 48 | |
| 20260901200924 | 80 | 267 | 5.2 | 11.3 | 0.00 | 0.00 | 0.00 | 47 | |
| 20260901200520 | 80 | 265 | 7.8 | 11.3 | 0.00 | 0.00 | 0.00 | 47 | |
| 20260901200318 | 80 | 250 | 7.8 | 11.3 | 0.00 | 0.00 | 0.00 | 47 | |
| 20260901200116 | 80 | 243 | 3.5 | 11.3 | 0.00 | 0.00 | 0.00 | 48 | |
| 20260901195914 | 80 | 271 | 7.0 | 11.3 | 0.00 | 0.00 | 0.00 | 47 | |
| 20260901195712 | 80 | 240 | 5.2 | 13.0 | 0.00 | 0.00 | 0.00 | 47 | |
| 20260901195510 | 80 | 275 | 7.8 | 13.0 | 0.00 | 0.00 | 0.00 | 48 | |
| 20260901195309 | 80 | 285 | 3.5 | 13.0 | 0.00 | 0.00 | 0.00 | 47 | |
| 20260901195106 | 79 | 275 | 7.0 | 9.6 | 0.00 | 0.00 | 0.00 | 48 | |
| 20260901194904 | 79 | 257 | 9.6 | 9.6 | 0.00 | 0.00 | 0.00 | 47 | |
| 20260901194703 | 80 | 286 | 5.2 | 13.9 | 0.00 | 0.00 | 0.00 | 47 | |
| 20260901194501 | 80 | 275 | 7.8 | 13.9 | 0.00 | 0.00 | 0.00 | 48 | |
| 20260901194259 | 80 | 246 | 7.8 | 13.9 | 0.00 | 0.00 | 0.00 | 47 | |
| 20260901194056 | 79 | 261 | 10.4 | 8.7 | 0.00 | 0.00 | 0.00 | 46 | |
| 20260901193855 | 80 | 264 | 8.7 | 8.7 | 0.00 | 0.00 | 0.00 | 45 | |
| 20260901193047 | 79 | 227 | 2.6 | 12.2 | 0.00 | 0.00 | 0.00 | 47 | |
| 20260901192843 | 79 | 264 | 4.3 | 12.2 | 0.00 | 0.00 | 0.00 | 46 | |
| 20260901192643 | 79 | 260 | 8.7 | 12.2 | 0.00 | 0.00 | 0.00 | 46 | |
| 20260901192441 | 79 | 274 | 5.2 | 12.2 | 0.00 | 0.00 | 0.00 | 46 | |
| 20260901192237 | 79 | 271 | 6.1 | 13.0 | 0.00 | 0.00 | 0.00 | 46 | |
| 20260901192036 | 79 | 258 | 5.2 | 13.0 | 0.00 | 0.00 | 0.00 | 47 | |
| 20260901191836 | 79 | 277 | 3.5 | 13.0 | 0.00 | 0.00 | 0.00 | 47 | |
| 20260901191633 | 78 | 262 | 11.3 | 13.0 | 0.00 | 0.00 | 0.00 | 47 | |
| 20260901191431 | 79 | 271 | 9.6 | 13.0 | 0.00 | 0.00 | 0.00 | 47 | |
| 20260901191228 | 79 | 295 | 5.2 | 10.4 | 0.00 | 0.00 | 0.00 | 46 | |
| 20260901191027 | 79 | 264 | 1.7 | 10.4 | 0.00 | 0.00 | 0.00 | 46 | |
| 20260901190823 | 78 | 257 | 7.0 | 10.4 | 0.00 | 0.00 | 0.00 | 47 | |
| 20260901190422 | 78 | 255 | 7.8 | 7.8 | 0.00 | 0.00 | 0.00 | 48 | |
| 20260901190220 | 78 | 310 | 2.6 | 9.6 | 0.00 | 0.00 | 0.00 | 49 | |
| 20260901190016 | 78 | 271 | 5.2 | 9.6 | 0.00 | 0.00 | 0.00 | 48 | |
| 20260901185816 | 78 | 270 | 4.3 | 9.6 | 0.00 | 0.00 | 0.00 | 48 | |
| 20260901185612 | 78 | 281 | 6.1 | 10.4 | 0.00 | 0.00 | 0.00 | 48 | |
| 20260901185210 | 78 | 260 | 5.2 | 7.8 | 0.00 | 0.00 | 0.00 | 49 | |
| 20260901185008 | 78 | 268 | 9.6 | 7.8 | 0.00 | 0.00 | 0.00 | 49 | |
| 20260901184602 | 78 | 277 | 5.2 | 7.0 | 0.00 | 0.00 | 0.00 | 48 | |
| 20260901184402 | 78 | 271 | 6.1 | 7.0 | 0.00 | 0.00 | 0.00 | 48 | |
| 20260901184159 | 78 | 298 | 2.6 | 8.7 | 0.00 | 0.00 | 0.00 | 50 | |
| 20260901183958 | 77 | 275 | 4.3 | 8.7 | 0.00 | 0.00 | 0.00 | 51 | |
| 20260901183754 | 77 | 236 | 0.0 | 8.7 | 0.00 | 0.00 | 0.00 | 52 | |
| 20260901183554 | 77 | 281 | 6.1 | 9.6 | 0.00 | 0.00 | 0.00 | 52 | |
| 20260901183352 | 77 | 307 | 4.3 | 9.6 | 0.00 | 0.00 | 0.00 | 52 | |
| 20260901183150 | 76 | 281 | 6.1 | 9.6 | 0.00 | 0.00 | 0.00 | 52 | |
| 20260901182948 | 77 | 250 | 5.2 | 9.6 | 0.00 | 0.00 | 0.00 | 54 | |
| 20260901182744 | 77 | 275 | 4.3 | 7.8 | 0.00 | 0.00 | 0.00 | 53 | |
| 20260901182542 | 76 | 270 | 6.1 | 7.8 | 0.00 | 0.00 | 0.00 | 54 | |
| 20260901182342 | 76 | 262 | 8.7 | 7.8 | 0.00 | 0.00 | 0.00 | 53 | |
| 20260901182140 | 76 | 260 | 6.1 | 8.7 | 0.00 | 0.00 | 0.00 | 55 | |
| 20260901181938 | 76 | 241 | 2.6 | 8.7 | 0.00 | 0.00 | 0.00 | 56 | |
| 20260901181737 | 76 | 199 | 0.0 | 9.6 | 0.00 | 0.00 | 0.00 | 56 | |
| 20260901181534 | 76 | 271 | 8.7 | 9.6 | 0.00 | 0.00 | 0.00 | 56 | |
| 20260901181332 | 76 | 255 | 4.3 | 9.6 | 0.00 | 0.00 | 0.00 | 56 | |
| 20260901181130 | 76 | 255 | 6.1 | 8.7 | 0.00 | 0.00 | 0.00 | 56 | |
| 20260901180930 | 76 | 277 | 6.1 | 8.7 | 0.00 | 0.00 | 0.00 | 56 | |
| 20260901180727 | 76 | 262 | 5.2 | 8.7 | 0.00 | 0.00 | 0.00 | 56 | |
| 20260901180524 | 76 | 274 | 4.3 | 8.7 | 0.00 | 0.00 | 0.00 | 56 | |
| 20260901180321 | 76 | 232 | 0.0 | 8.7 | 0.00 | 0.00 | 0.00 | 57 | |
| 20260901175717 | 77 | 277 | 6.1 | 7.0 | 0.00 | 0.00 | 0.00 | 54 | |
| 20260901175515 | 77 | 239 | 0.9 | 7.0 | 0.00 | 0.00 | 0.00 | 54 | |
| 20260901175111 | 77 | 300 | 3.5 | 3.5 | 0.00 | 0.00 | 0.00 | 53 | |
| 20260901174909 | 77 | 125 | 0.0 | 3.5 | 0.00 | 0.00 | 0.00 | 55 | |
| 20260901174710 | 77 | 125 | 0.0 | 4.3 | 0.00 | 0.00 | 0.00 | 54 | |
| 20260901174303 | 76 | 143 | 0.0 | 4.3 | 0.00 | 0.00 | 0.00 | 57 | |
| 20260901174100 | 75 | 191 | 0.0 | 0.9 | 0.00 | 0.00 | 0.00 | 56 | |
| 20260901173859 | 75 | 264 | 1.7 | 0.9 | 0.00 | 0.00 | 0.00 | 59 | |
| 20260901173453 | 74 | 57 | 0.0 | 3.5 | 0.00 | 0.00 | 0.00 | 62 | |
| 20260901173251 | 73 | 213 | 0.0 | 3.5 | 0.00 | 0.00 | 0.00 | 63 | |
| 20260901173051 | 73 | 240 | 0.9 | 2.6 | 0.00 | 0.00 | 0.00 | 63 | |
| 20260901172847 | 73 | 316 | 1.7 | 2.6 | 0.00 | 0.00 | 0.00 | 62 | |
| 20260901172645 | 72 | 296 | 0.0 | 1.7 | 0.00 | 0.00 | 0.00 | 66 | |
| 20260901172241 | 71 | 310 | 0.0 | 4.3 | 0.00 | 0.00 | 0.00 | 69 | |
| 20260901172039 | 70 | 234 | 0.9 | 4.3 | 0.00 | 0.00 | 0.00 | 70 | |
| 20260901171838 | 70 | 198 | 0.0 | 4.3 | 0.00 | 0.00 | 0.00 | 71 | |
| 20260901171635 | 69 | 198 | 0.0 | 6.1 | 0.00 | 0.00 | 0.00 | 72 | |
| 20260901171433 | 69 | 229 | 1.7 | 6.1 | 0.00 | 0.00 | 0.00 | 72 | |
| 20260901171232 | 69 | 237 | 0.9 | 7.0 | 0.00 | 0.00 | 0.00 | 72 | |
| 20260901171225 | 68 | 281 | 5.2 | 7.0 | 0.00 | 0.00 | 0.00 | 73 | |
| 20260901171031 | 68 | 281 | 5.2 | 7.0 | 0.00 | 0.00 | 0.00 | 73 | |
| 20260901170830 | 68 | 307 | 1.7 | 7.0 | 0.00 | 0.00 | 0.00 | 75 | |
| 20260901170425 | 67 | 310 | 1.7 | 6.1 | 0.00 | 0.00 | 0.00 | 76 | |
| 20260901170224 | 67 | 298 | 3.5 | 7.0 | 0.00 | 0.00 | 0.00 | 76 | |
| 20260901165820 | 67 | 284 | 5.2 | 7.0 | 0.00 | 0.00 | 0.00 | 77 | |
| 20260901165414 | 66 | 279 | 6.1 | 7.0 | 0.00 | 0.00 | 0.00 | 77 | |
| 20260901165212 | 66 | 310 | 3.5 | 7.8 | 0.00 | 0.00 | 0.00 | 77 | |
| 20260901164809 | 66 | 278 | 3.5 | 7.8 | 0.00 | 0.00 | 0.00 | 79 | |
| 20260901164607 | 66 | 270 | 6.1 | 7.8 | 0.00 | 0.00 | 0.00 | 78 | |
| 20260901164405 | 65 | 277 | 3.5 | 7.8 | 0.00 | 0.00 | 0.00 | 79 | |
| 20260901164203 | 65 | 292 | 3.5 | 9.6 | 0.00 | 0.00 | 0.00 | 81 | |
| 20260901164001 | 65 | 296 | 3.5 | 9.6 | 0.00 | 0.00 | 0.00 | 82 | |
| 20260901163759 | 64 | 289 | 6.1 | 9.6 | 0.00 | 0.00 | 0.00 | 82 | |
| 20260901163713 | 64 | 258 | 8.7 | 7.0 | 0.00 | 0.00 | 0.00 | 82 | |
| 20260901163557 | 64 | 258 | 8.7 | 7.0 | 0.00 | 0.00 | 0.00 | 82 | |
| 20260901163355 | 64 | 262 | 7.0 | 7.0 | 0.00 | 0.00 | 0.00 | 84 | |
| 20260901163153 | 64 | 271 | 4.3 | 7.0 | 0.00 | 0.00 | 0.00 | 85 | |
| 20260901162952 | 63 | 270 | 4.3 | 7.0 | 0.00 | 0.00 | 0.00 | 86 | |
| 20260901162750 | 63 | 279 | 4.3 | 7.0 | 0.00 | 0.00 | 0.00 | 88 | |
| 20260901162548 | 63 | 277 | 1.7 | 5.2 | 0.00 | 0.00 | 0.00 | 89 | |
| 20260901162346 | 62 | 279 | 2.6 | 5.2 | 0.00 | 0.00 | 0.00 | 91 | |
| 20260901162144 | 62 | 278 | 3.5 | 4.3 | 0.00 | 0.00 | 0.00 | 92 | |
| 20260901161740 | 61 | 253 | 0.0 | 2.6 | 0.00 | 0.00 | 0.00 | 95 | |
| 20260901161538 | 61 | 305 | 1.7 | 2.6 | 0.00 | 0.00 | 0.00 | 95 | |
| 20260901161336 | 61 | 240 | 0.0 | 2.6 | 0.00 | 0.00 | 0.00 | 95 | |
| 20260901161135 | 61 | 240 | 0.0 | 1.7 | 0.00 | 0.00 | 0.00 | 95 | |
| 20260901160933 | 60 | 264 | 0.0 | 1.7 | 0.00 | 0.00 | 0.00 | 96 | |
| 20260901160731 | 60 | 260 | 0.0 | 3.5 | 0.00 | 0.00 | 0.00 | 95 | |
| 20260901160529 | 60 | 272 | 0.0 | 3.5 | 0.00 | 0.00 | 0.00 | 96 | |
| 20260901155923 | 60 | 261 | 0.0 | 1.7 | 0.00 | 0.00 | 0.00 | 96 | |
| 20260901155721 | 60 | 261 | 0.0 | 0.0 | 0.00 | 0.00 | 0.00 | 96 | |
| 20260901155317 | 60 | 111 | 0.0 | 0.0 | 0.00 | 0.00 | 0.00 | 96 | |
| 20260901154914 | 60 | 111 | 0.0 | 2.6 | 0.00 | 0.00 | 0.00 | 96 | |
| 20260901154712 | 60 | 111 | 0.0 | 0.0 | 0.00 | 0.00 | 0.00 | 96 | |
| 20260901154510 | 60 | 64 | 0.0 | 0.0 | 0.00 | 0.00 | 0.00 | 96 | |
| 20260901154106 | 59 | 64 | 0.0 | 2.6 | 0.00 | 0.00 | 0.00 | 96 | |
| 20260901153904 | 59 | 64 | 0.0 | 2.6 | 0.00 | 0.00 | 0.00 | 96 | |
| 20260901153702 | 59 | 64 | 0.0 | 4.3 | 0.00 | 0.00 | 0.00 | 96 | |
| 20260901153056 | 59 | 71 | 0.0 | 0.0 | 0.00 | 0.00 | 0.00 | 96 | |
| 20260901152855 | 59 | 277 | 0.0 | 0.0 | 0.00 | 0.00 | 0.00 | 96 | |
| 20260901152653 | 58 | 277 | 0.0 | 0.0 | 0.00 | 0.00 | 0.00 | 96 | |
| 20260901152451 | 58 | 277 | 0.0 | 0.0 | 0.00 | 0.00 | 0.00 | 96 | |
| 20260901152047 | 58 | 277 | 0.0 | 0.0 | 0.00 | 0.00 | 0.00 | 96 | |
| 20260901151845 | 58 | 277 | 0.0 | 0.0 | 0.00 | 0.00 | 0.00 | 96 | |
| 20260901151643 | 58 | 277 | 0.0 | 0.0 | 0.00 | 0.00 | 0.00 | 96 | |
| 20260901151441 | 58 | 277 | 0.0 | 0.0 | 0.00 | 0.00 | 0.00 | 96 | |
| 20260901151037 | 58 | 277 | 0.0 | 0.0 | 0.00 | 0.00 | 0.00 | 96 | |
| 20260901150836 | 58 | 277 | 0.0 | 0.0 | 0.00 | 0.00 | 0.00 | 96 | |
| 20260901150634 | 58 | 277 | 0.0 | 0.0 | 0.00 | 0.00 | 0.00 | 96 | |
| 20260901150432 | 58 | 277 | 0.0 | 0.0 | 0.00 | 0.00 | 0.00 | 96 | |
| 20260901150230 | 58 | 277 | 0.0 | 0.0 | 0.00 | 0.00 | 0.00 | 96 | |
| 20260901150028 | 58 | 277 | 0.0 | 0.0 | 0.00 | 0.00 | 0.00 | 96 | |
| 20260901145826 | 58 | 277 | 0.0 | 0.0 | 0.00 | 0.00 | 0.00 | 96 | |
| 20260901145624 | 57 | 277 | 0.0 | 3.5 | 0.00 | 0.00 | 0.00 | 96 | |
| 20260901145422 | 57 | 277 | 0.0 | 3.5 | 0.00 | 0.00 | 0.00 | 96 | |
| 20260901145220 | 58 | 277 | 0.0 | 3.5 | 0.00 | 0.00 | 0.00 | 96 | |
| 20260901145018 | 58 | 292 | 2.6 | 3.5 | 0.00 | 0.00 | 0.00 | 96 | |
| 20260901144817 | 57 | 277 | 0.0 | 3.5 | 0.00 | 0.00 | 0.00 | 96 | |
| 20260901144413 | 57 | 292 | 0.0 | 0.0 | 0.00 | 0.00 | 0.00 | 96 | |
| 20260901143807 | 57 | 292 | 0.0 | 3.5 | 0.00 | 0.00 | 0.00 | 96 | |
| 20260901143605 | 58 | 291 | 1.7 | 3.5 | 0.00 | 0.00 | 0.00 | 96 | |
| 20260901142959 | 58 | 289 | 2.6 | 5.2 | 0.00 | 0.00 | 0.00 | 96 | |
| 20260901142758 | 58 | 264 | 2.6 | 5.2 | 0.00 | 0.00 | 0.00 | 96 | |
| 20260901142556 | 58 | 270 | 4.3 | 4.3 | 0.00 | 0.00 | 0.00 | 96 | |
| 20260901142152 | 58 | 255 | 0.0 | 0.0 | 0.00 | 0.00 | 0.00 | 96 | |
| 20260901141748 | 58 | 255 | 0.0 | 0.0 | 0.00 | 0.00 | 0.00 | 96 | |
| 20260901141546 | 58 | 255 | 0.0 | 0.0 | 0.00 | 0.00 | 0.00 | 96 | |
| 20260901141344 | 58 | 255 | 0.0 | 0.0 | 0.00 | 0.00 | 0.00 | 96 | |
| 20260901141142 | 58 | 255 | 0.0 | 0.9 | 0.00 | 0.00 | 0.00 | 96 | |
| 20260901140940 | 58 | 255 | 0.0 | 0.9 | 0.00 | 0.00 | 0.00 | 96 | |
| 20260901140740 | 58 | 255 | 0.0 | 0.0 | 0.00 | 0.00 | 0.00 | 96 | |
| 20260901140335 | 58 | 84 | 0.0 | 0.0 | 0.00 | 0.00 | 0.00 | 96 | |
| 20260901140133 | 58 | 84 | 0.0 | 0.0 | 0.00 | 0.00 | 0.00 | 96 | |
| 20260901135729 | 58 | 84 | 0.0 | 0.0 | 0.00 | 0.00 | 0.00 | 96 | |
| 20260901135529 | 58 | 84 | 0.0 | 0.0 | 0.00 | 0.00 | 0.00 | 96 | |
| 20260901135325 | 58 | 84 | 0.0 | 0.0 | 0.00 | 0.00 | 0.00 | 96 | |
| 20260901135123 | 58 | 84 | 0.0 | 0.0 | 0.00 | 0.00 | 0.00 | 96 | |
| 20260901134921 | 58 | 84 | 0.0 | 0.0 | 0.00 | 0.00 | 0.00 | 96 | |
| 20260901134720 | 57 | 84 | 0.0 | 0.0 | 0.00 | 0.00 | 0.00 | 96 | |
| 20260901134518 | 57 | 84 | 0.0 | 0.0 | 0.00 | 0.00 | 0.00 | 96 | |
| 20260901134316 | 57 | 84 | 0.0 | 0.0 | 0.00 | 0.00 | 0.00 | 96 | |
| 20260901134114 | 57 | 84 | 0.0 | 3.5 | 0.00 | 0.00 | 0.00 | 96 | |
| 20260901133912 | 57 | 84 | 0.0 | 3.5 | 0.00 | 0.00 | 0.00 | 96 | |
| 20260901133710 | 57 | 84 | 0.0 | 3.5 | 0.00 | 0.00 | 0.00 | 96 | |
| 20260901133508 | 57 | 84 | 0.0 | 3.5 | 0.00 | 0.00 | 0.00 | 96 | |
| 20260901133306 | 57 | 60 | 0.9 | 3.5 | 0.00 | 0.00 | 0.00 | 95 | |
| 20260901133104 | 57 | 75 | 0.9 | 0.0 | 0.00 | 0.00 | 0.00 | 96 | |
| 20260901132902 | 57 | 50 | 0.0 | 0.0 | 0.00 | 0.00 | 0.00 | 96 | |
| 20260901132700 | 57 | 50 | 0.0 | 2.6 | 0.00 | 0.00 | 0.00 | 95 | |
| 20260901132459 | 57 | 50 | 0.0 | 2.6 | 0.00 | 0.00 | 0.00 | 95 | |
| 20260901132257 | 57 | 50 | 0.0 | 2.6 | 0.00 | 0.00 | 0.00 | 95 | |
| 20260901132055 | 57 | 63 | 0.0 | 3.5 | 0.00 | 0.00 | 0.00 | 95 | |
| 20260901131853 | 57 | 75 | 0.0 | 3.5 | 0.00 | 0.00 | 0.00 | 95 | |
| 20260901131651 | 57 | 94 | 0.9 | 0.9 | 0.00 | 0.00 | 0.00 | 95 | |
| 20260901131247 | 57 | 45 | 0.0 | 0.9 | 0.00 | 0.00 | 0.00 | 95 | |
| 20260901131045 | 57 | 281 | 0.0 | 0.0 | 0.00 | 0.00 | 0.00 | 95 | |
| 20260901130843 | 57 | 281 | 0.0 | 0.0 | 0.00 | 0.00 | 0.00 | 95 | |
| 20260901130641 | 57 | 281 | 0.0 | 0.0 | 0.00 | 0.00 | 0.00 | 95 | |
| 20260901130439 | 57 | 281 | 0.0 | 0.0 | 0.00 | 0.00 | 0.00 | 95 | |
| 20260901130238 | 57 | 281 | 0.0 | 0.0 | 0.00 | 0.00 | 0.00 | 95 | |
| 20260901130036 | 57 | 281 | 0.0 | 0.0 | 0.00 | 0.00 | 0.00 | 95 | |
| 20260901125834 | 57 | 281 | 0.0 | 0.0 | 0.00 | 0.00 | 0.00 | 95 | |
| 20260901125632 | 57 | 281 | 0.0 | 0.0 | 0.00 | 0.00 | 0.00 | 95 | |
| 20260901125430 | 57 | 281 | 0.0 | 0.0 | 0.00 | 0.00 | 0.00 | 95 | |
| 20260901125026 | 57 | 281 | 0.0 | 0.0 | 0.00 | 0.00 | 0.00 | 95 | |
| 20260901124824 | 57 | 281 | 0.0 | 0.0 | 0.00 | 0.00 | 0.00 | 95 | |
| 20260901124622 | 57 | 281 | 0.0 | 0.0 | 0.00 | 0.00 | 0.00 | 95 | |
| 20260901124420 | 57 | 281 | 0.0 | 0.0 | 0.00 | 0.00 | 0.00 | 95 | |
| 20260901124218 | 57 | 281 | 0.0 | 0.0 | 0.00 | 0.00 | 0.00 | 95 | |
| 20260901124017 | 56 | 281 | 0.0 | 0.0 | 0.00 | 0.00 | 0.00 | 95 | |
| 20260901123815 | 56 | 281 | 0.0 | 0.0 | 0.00 | 0.00 | 0.00 | 96 | |
| 20260901123613 | 56 | 281 | 0.0 | 0.0 | 0.00 | 0.00 | 0.00 | 96 | |
| 20260901123411 | 56 | 281 | 0.0 | 0.0 | 0.00 | 0.00 | 0.00 | 96 | |
| 20260901123209 | 56 | 281 | 0.0 | 0.0 | 0.00 | 0.00 | 0.00 | 95 | |
| 20260901123007 | 56 | 281 | 0.0 | 0.0 | 0.00 | 0.00 | 0.00 | 95 | |
| 20260901122805 | 55 | 281 | 0.0 | 0.0 | 0.00 | 0.00 | 0.00 | 95 | |
| 20260901122603 | 55 | 281 | 0.0 | 0.0 | 0.00 | 0.00 | 0.00 | 95 | |
| 20260901122401 | 55 | 281 | 0.0 | 0.0 | 0.00 | 0.00 | 0.00 | 95 | |
| 20260901122159 | 55 | 281 | 0.0 | 0.0 | 0.00 | 0.00 | 0.00 | 95 | |
| 20260901121959 | 56 | 281 | 0.0 | 0.0 | 0.00 | 0.00 | 0.00 | 95 | |
| 20260901121756 | 56 | 281 | 0.0 | 0.0 | 0.00 | 0.00 | 0.00 | 95 | |
| 20260901121554 | 55 | 281 | 0.0 | 0.0 | 0.00 | 0.00 | 0.00 | 95 | |
| 20260901121352 | 56 | 281 | 0.0 | 0.0 | 0.00 | 0.00 | 0.00 | 95 | |
| 20260901121150 | 56 | 281 | 0.0 | 0.0 | 0.00 | 0.00 | 0.00 | 95 | |
| 20260901120948 | 56 | 281 | 0.0 | 0.0 | 0.00 | 0.00 | 0.00 | 95 | |
| 20260901120746 | 56 | 281 | 0.0 | 0.0 | 0.00 | 0.00 | 0.00 | 95 | |
| 20260901120544 | 56 | 281 | 0.0 | 0.0 | 0.00 | 0.00 | 0.00 | 95 | |
| 20260901120342 | 56 | 281 | 0.0 | 0.0 | 0.00 | 0.00 | 0.00 | 95 | |
| 20260901115737 | 57 | 281 | 0.0 | 2.6 | 0.00 | 0.00 | 0.00 | 95 | |
| 20260901115333 | 57 | 281 | 0.0 | 2.6 | 0.00 | 0.00 | 0.00 | 95 | |
| 20260901115131 | 57 | 281 | 0.0 | 3.5 | 0.00 | 0.00 | 0.00 | 95 | |
| 20260901114929 | 57 | 298 | 0.9 | 3.5 | 0.00 | 0.00 | 0.00 | 95 | |
| 20260901114727 | 57 | 305 | 1.7 | 1.7 | 0.00 | 0.00 | 0.00 | 95 | |
| 20260901114525 | 57 | 282 | 1.7 | 1.7 | 0.00 | 0.00 | 0.00 | 95 | |
| 20260901114323 | 57 | 296 | 0.9 | 1.7 | 0.00 | 0.00 | 0.00 | 95 | |
| 20260901114121 | 57 | 296 | 0.0 | 3.5 | 0.00 | 0.00 | 0.00 | 95 | |
| 20260901113920 | 57 | 296 | 0.0 | 3.5 | 0.00 | 0.00 | 0.00 | 95 | |
| 20260901113718 | 57 | 298 | 1.7 | 6.1 | 0.00 | 0.00 | 0.00 | 95 | |
| 20260901113516 | 57 | 293 | 0.9 | 6.1 | 0.00 | 0.00 | 0.00 | 95 | |
| 20260901113314 | 57 | 309 | 0.0 | 6.1 | 0.00 | 0.00 | 0.00 | 95 | |
| 20260901113112 | 57 | 288 | 5.2 | 4.3 | 0.00 | 0.00 | 0.00 | 95 | |
| 20260901112910 | 57 | 302 | 2.6 | 4.3 | 0.00 | 0.00 | 0.00 | 95 | |
| 20260901112708 | 57 | 303 | 3.5 | 4.3 | 0.00 | 0.00 | 0.00 | 96 | |
| 20260901112506 | 57 | 303 | 2.6 | 4.3 | 0.00 | 0.00 | 0.00 | 95 | |
| 20260901112306 | 56 | 312 | 1.7 | 4.3 | 0.00 | 0.00 | 0.00 | 95 | |
| 20260901112102 | 56 | 319 | 2.6 | 3.5 | 0.00 | 0.00 | 0.00 | 95 | |
| 20260901111900 | 56 | 293 | 3.5 | 3.5 | 0.00 | 0.00 | 0.00 | 95 | |
| 20260901111659 | 56 | 293 | 3.5 | 4.3 | 0.00 | 0.00 | 0.00 | 95 | |
| 20260901111457 | 56 | 285 | 2.6 | 4.3 | 0.00 | 0.00 | 0.00 | 95 | |
| 20260901111255 | 56 | 277 | 2.6 | 4.3 | 0.00 | 0.00 | 0.00 | 95 | |
| 20260901110851 | 56 | 298 | 3.5 | 3.5 | 0.00 | 0.00 | 0.00 | 95 | |
| 20260901110649 | 56 | 302 | 3.5 | 3.5 | 0.00 | 0.00 | 0.00 | 94 | |
| 20260901110447 | 56 | 285 | 3.5 | 3.5 | 0.00 | 0.00 | 0.00 | 93 | |
| 20260901110245 | 56 | 289 | 2.6 | 0.0 | 0.00 | 0.00 | 0.00 | 93 | |
| 20260901110043 | 57 | 278 | 3.5 | 0.0 | 0.00 | 0.00 | 0.00 | 93 | |
| 20260901105841 | 57 | 26 | 0.0 | 0.0 | 0.00 | 0.00 | 0.00 | 94 | |
| 20260901105641 | 57 | 26 | 0.0 | 0.0 | 0.00 | 0.00 | 0.00 | 94 | |
| 20260901105236 | 57 | 26 | 0.0 | 0.0 | 0.00 | 0.00 | 0.00 | 93 | |
| 20260901105034 | 57 | 26 | 0.0 | 0.0 | 0.00 | 0.00 | 0.00 | 93 | |
| 20260901104832 | 57 | 26 | 0.0 | 0.0 | 0.00 | 0.00 | 0.00 | 93 | |
| 20260901104630 | 57 | 26 | 0.0 | 0.0 | 0.00 | 0.00 | 0.00 | 93 | |
| 20260901104428 | 57 | 26 | 0.0 | 0.0 | 0.00 | 0.00 | 0.00 | 93 | |
| 20260901104228 | 57 | 26 | 0.0 | 0.0 | 0.00 | 0.00 | 0.00 | 93 | |
| 20260901104024 | 57 | 26 | 0.0 | 0.0 | 0.00 | 0.00 | 0.00 | 93 | |
| 20260901103822 | 57 | 26 | 0.0 | 0.0 | 0.00 | 0.00 | 0.00 | 93 | |
| 20260901103622 | 57 | 26 | 0.0 | 0.0 | 0.00 | 0.00 | 0.00 | 93 | |
| 20260901103419 | 57 | 26 | 0.0 | 0.0 | 0.00 | 0.00 | 0.00 | 93 | |
| 20260901103217 | 57 | 26 | 0.0 | 0.0 | 0.00 | 0.00 | 0.00 | 93 | |
| 20260901103015 | 57 | 26 | 0.0 | 0.0 | 0.00 | 0.00 | 0.00 | 93 | |
| 20260901102813 | 57 | 26 | 0.0 | 0.0 | 0.00 | 0.00 | 0.00 | 93 | |
| 20260901102611 | 56 | 26 | 0.0 | 0.9 | 0.00 | 0.00 | 0.00 | 93 | |
| 20260901102409 | 57 | 26 | 0.0 | 0.9 | 0.00 | 0.00 | 0.00 | 93 | |
| 20260901102207 | 57 | 26 | 0.0 | 0.0 | 0.00 | 0.00 | 0.00 | 93 | |
| 20260901102005 | 57 | 49 | 0.0 | 0.0 | 0.00 | 0.00 | 0.00 | 93 | |
| 20260901101803 | 57 | 64 | 0.0 | 0.0 | 0.00 | 0.00 | 0.00 | 93 | |
| 20260901101400 | 56 | 64 | 0.0 | 0.0 | 0.00 | 0.00 | 0.00 | 93 | |
| 20260901101158 | 56 | 64 | 0.0 | 0.9 | 0.00 | 0.00 | 0.00 | 93 | |
| 20260901100956 | 56 | 64 | 0.0 | 0.9 | 0.00 | 0.00 | 0.00 | 93 | |
| 20260901100754 | 56 | 64 | 0.0 | 0.9 | 0.00 | 0.00 | 0.00 | 92 | |
| 20260901100554 | 56 | 64 | 0.0 | 0.0 | 0.00 | 0.00 | 0.00 | 92 | |
| 20260901100350 | 57 | 300 | 0.0 | 0.0 | 0.00 | 0.00 | 0.00 | 92 | |
| 20260901100148 | 56 | 300 | 0.0 | 0.0 | 0.00 | 0.00 | 0.00 | 92 | |
| 20260901095946 | 56 | 300 | 0.0 | 0.0 | 0.00 | 0.00 | 0.00 | 93 | |
| 20260901095744 | 56 | 300 | 0.0 | 0.0 | 0.00 | 0.00 | 0.00 | 92 | |
| 20260901095544 | 56 | 300 | 0.0 | 0.0 | 0.00 | 0.00 | 0.00 | 92 | |
| 20260901095341 | 56 | 300 | 0.0 | 0.0 | 0.00 | 0.00 | 0.00 | 92 | |
| 20260901095139 | 56 | 300 | 0.0 | 0.0 | 0.00 | 0.00 | 0.00 | 92 | |
| 20260901094937 | 56 | 300 | 0.0 | 0.0 | 0.00 | 0.00 | 0.00 | 91 | |
| 20260901094735 | 56 | 300 | 0.0 | 0.0 | 0.00 | 0.00 | 0.00 | 91 | |
| 20260901094533 | 57 | 300 | 0.0 | 0.0 | 0.00 | 0.00 | 0.00 | 91 | |
| 20260901094331 | 57 | 300 | 0.0 | 0.0 | 0.00 | 0.00 | 0.00 | 92 | |
| 20260901094129 | 57 | 300 | 0.0 | 0.0 | 0.00 | 0.00 | 0.00 | 92 | |
| 20260901093927 | 57 | 300 | 0.0 | 0.0 | 0.00 | 0.00 | 0.00 | 92 | |
| 20260901093725 | 57 | 300 | 0.0 | 0.0 | 0.00 | 0.00 | 0.00 | 92 | |
| 20260901093523 | 57 | 300 | 0.0 | 0.0 | 0.00 | 0.00 | 0.00 | 92 | |
| 20260901093324 | 57 | 300 | 0.0 | 0.0 | 0.00 | 0.00 | 0.00 | 92 | |
| 20260901093120 | 57 | 300 | 0.0 | 0.0 | 0.00 | 0.00 | 0.00 | 92 | |
| 20260901092918 | 57 | 300 | 0.0 | 0.0 | 0.00 | 0.00 | 0.00 | 92 | |
| 20260901092716 | 57 | 300 | 0.0 | 0.0 | 0.00 | 0.00 | 0.00 | 92 | |
| 20260901092514 | 57 | 300 | 0.0 | 0.0 | 0.00 | 0.00 | 0.00 | 92 | |
| 20260901092312 | 57 | 300 | 0.0 | 0.0 | 0.00 | 0.00 | 0.00 | 92 | |
| 20260901092110 | 57 | 300 | 0.0 | 0.0 | 0.00 | 0.00 | 0.00 | 92 | |
| 20260901091909 | 57 | 300 | 0.0 | 0.0 | 0.00 | 0.00 | 0.00 | 91 | |
| 20260901091706 | 57 | 300 | 0.0 | 0.0 | 0.00 | 0.00 | 0.00 | 91 | |
| 20260901091302 | 57 | 300 | 0.0 | 0.0 | 0.00 | 0.00 | 0.00 | 91 | |
| 20260901091101 | 57 | 300 | 0.0 | 0.0 | 0.00 | 0.00 | 0.00 | 91 | |
| 20260901090859 | 57 | 300 | 0.0 | 0.0 | 0.00 | 0.00 | 0.00 | 91 | |
| 20260901090657 | 57 | 300 | 0.0 | 0.0 | 0.00 | 0.00 | 0.00 | 91 | |
| 20260901090455 | 57 | 300 | 0.0 | 0.0 | 0.00 | 0.00 | 0.00 | 91 | |
| 20260901090253 | 57 | 300 | 0.0 | 0.0 | 0.00 | 0.00 | 0.00 | 91 | |
| 20260901090051 | 57 | 300 | 0.0 | 0.0 | 0.00 | 0.00 | 0.00 | 91 | |
| 20260901085849 | 56 | 300 | 0.0 | 0.0 | 0.00 | 0.00 | 0.00 | 91 | |
| 20260901085647 | 57 | 300 | 0.0 | 0.0 | 0.00 | 0.00 | 0.00 | 91 | |
| 20260901085445 | 57 | 300 | 0.0 | 0.0 | 0.00 | 0.00 | 0.00 | 91 | |
| 20260901085243 | 57 | 300 | 0.0 | 0.0 | 0.00 | 0.00 | 0.00 | 91 | |
| 20260901085041 | 57 | 300 | 0.0 | 0.0 | 0.00 | 0.00 | 0.00 | 91 | |
| 20260901084840 | 57 | 300 | 0.0 | 0.0 | 0.00 | 0.00 | 0.00 | 91 | |
| 20260901084638 | 57 | 300 | 0.0 | 0.0 | 0.00 | 0.00 | 0.00 | 91 | |
| 20260901084436 | 57 | 300 | 0.0 | 0.0 | 0.00 | 0.00 | 0.00 | 91 | |
| 20260901084234 | 57 | 300 | 0.0 | 1.7 | 0.00 | 0.00 | 0.00 | 91 | |
| 20260901084032 | 57 | 300 | 0.0 | 1.7 | 0.00 | 0.00 | 0.00 | 91 | |
| 20260901083830 | 57 | 300 | 0.0 | 1.7 | 0.00 | 0.00 | 0.00 | 91 | |
| 20260901083628 | 57 | 309 | 0.9 | 1.7 | 0.00 | 0.00 | 0.00 | 91 | |
| 20260901083426 | 57 | 316 | 0.9 | 1.7 | 0.00 | 0.00 | 0.00 | 91 | |
| 20260901083224 | 57 | 312 | 1.7 | 0.0 | 0.00 | 0.00 | 0.00 | 91 | |
| 20260901083022 | 57 | 272 | 0.0 | 0.0 | 0.00 | 0.00 | 0.00 | 91 | |
| 20260901082619 | 57 | 272 | 0.0 | 0.0 | 0.00 | 0.00 | 0.00 | 90 | |
| 20260901082417 | 57 | 272 | 0.0 | 0.0 | 0.00 | 0.00 | 0.00 | 90 | |
| 20260901082215 | 58 | 272 | 0.0 | 0.0 | 0.00 | 0.00 | 0.00 | 90 | |
| 20260901081811 | 58 | 272 | 0.0 | 0.0 | 0.00 | 0.00 | 0.00 | 90 | |
| 20260901081609 | 58 | 272 | 0.0 | 0.0 | 0.00 | 0.00 | 0.00 | 91 | |
| 20260901081407 | 58 | 272 | 0.0 | 0.0 | 0.00 | 0.00 | 0.00 | 91 | |
| 20260901081003 | 58 | 272 | 0.0 | 0.0 | 0.00 | 0.00 | 0.00 | 91 | |
| 20260901080803 | 58 | 272 | 0.0 | 0.0 | 0.00 | 0.00 | 0.00 | 91 | |
| 20260901080600 | 58 | 272 | 0.0 | 0.0 | 0.00 | 0.00 | 0.00 | 91 | |
| 20260901080358 | 58 | 272 | 0.0 | 0.0 | 0.00 | 0.00 | 0.00 | 90 | |
| 20260901075954 | 58 | 272 | 0.0 | 0.0 | 0.00 | 0.00 | 0.00 | 90 | |
| 20260901075752 | 58 | 272 | 0.0 | 0.0 | 0.00 | 0.00 | 0.00 | 90 | |
| 20260901075550 | 58 | 272 | 0.0 | 0.0 | 0.00 | 0.00 | 0.00 | 90 | |
| 20260901075348 | 57 | 272 | 0.0 | 0.0 | 0.00 | 0.00 | 0.00 | 90 | |
| 20260901075148 | 57 | 272 | 0.0 | 0.0 | 0.00 | 0.00 | 0.00 | 90 | |
| 20260901074944 | 57 | 272 | 0.0 | 0.0 | 0.00 | 0.00 | 0.00 | 90 | |
| 20260901074744 | 57 | 272 | 0.0 | 0.0 | 0.00 | 0.00 | 0.00 | 90 | |
| 20260901074542 | 57 | 272 | 0.0 | 0.0 | 0.00 | 0.00 | 0.00 | 90 | |
| 20260901074340 | 57 | 272 | 0.0 | 0.0 | 0.00 | 0.00 | 0.00 | 89 | |
| 20260901074138 | 57 | 272 | 0.0 | 0.0 | 0.00 | 0.00 | 0.00 | 89 | |
| 20260901073733 | 58 | 272 | 0.0 | 0.0 | 0.00 | 0.00 | 0.00 | 89 | |
| 20260901073533 | 58 | 272 | 0.0 | 0.0 | 0.00 | 0.00 | 0.00 | 89 | |
| 20260901073329 | 58 | 272 | 0.0 | 0.0 | 0.00 | 0.00 | 0.00 | 89 | |
| 20260901073127 | 58 | 272 | 0.0 | 0.0 | 0.00 | 0.00 | 0.00 | 89 | |
| 20260901072925 | 58 | 272 | 0.0 | 0.0 | 0.00 | 0.00 | 0.00 | 89 | |
| 20260901072723 | 58 | 272 | 0.0 | 0.0 | 0.00 | 0.00 | 0.00 | 89 | |
| 20260901072521 | 58 | 272 | 0.0 | 0.0 | 0.00 | 0.00 | 0.00 | 89 | |
| 20260901072320 | 58 | 272 | 0.0 | 0.0 | 0.00 | 0.00 | 0.00 | 89 | |
| 20260901072118 | 59 | 272 | 0.0 | 0.0 | 0.00 | 0.00 | 0.00 | 89 | |
| 20260901071916 | 59 | 272 | 0.0 | 0.0 | 0.00 | 0.00 | 0.00 | 90 | |
| 20260901071714 | 59 | 272 | 0.0 | 0.0 | 0.00 | 0.00 | 0.00 | 89 | |
| 20260901071512 | 59 | 272 | 0.0 | 0.0 | 0.00 | 0.00 | 0.00 | 89 | |
| 20260901071310 | 59 | 272 | 0.0 | 0.0 | 0.00 | 0.00 | 0.00 | 89 | |
| 20260901071108 | 59 | 272 | 0.0 | 0.0 | 0.00 | 0.00 | 0.00 | 89 | |
| 20260901070906 | 59 | 272 | 0.0 | 0.0 | 0.00 | 0.00 | 0.00 | 89 | |
| 20260901070704 | 59 | 272 | 0.0 | 0.0 | 0.00 | 0.00 | 0.00 | 89 | |
| 20260901070301 | 59 | 272 | 0.0 | 0.0 | 0.00 | 0.00 | 0.00 | 89 | |
| 20260901070059 | 59 | 272 | 0.0 | 0.0 | 0.00 | 0.00 | 0.00 | 89 | |
| 20260901065655 | 59 | 272 | 0.0 | 0.0 | 0.00 | 0.00 | 0.00 | 88 | |
| 20260901065453 | 59 | 272 | 0.0 | 0.0 | 0.00 | 0.00 | 0.00 | 88 | |
| 20260901065251 | 59 | 272 | 0.0 | 0.0 | 0.00 | 0.00 | 0.00 | 88 | |
| 20260901065051 | 59 | 272 | 0.0 | 0.0 | 0.00 | 0.00 | 0.00 | 88 | |
| 20260901064847 | 59 | 272 | 0.0 | 0.0 | 0.00 | 0.00 | 0.00 | 88 | |
| 20260901064645 | 59 | 272 | 0.0 | 0.0 | 0.00 | 0.00 | 0.00 | 88 | |
| 20260901064443 | 59 | 272 | 0.0 | 0.0 | 0.00 | 0.00 | 0.00 | 88 | |
| 20260901064242 | 59 | 272 | 0.0 | 0.0 | 0.00 | 0.00 | 0.00 | 88 | |
| 20260901064040 | 59 | 272 | 0.0 | 0.0 | 0.00 | 0.00 | 0.00 | 88 | |
| 20260901063838 | 59 | 272 | 0.0 | 0.0 | 0.00 | 0.00 | 0.00 | 88 | |
| 20260901063636 | 59 | 272 | 0.0 | 0.0 | 0.00 | 0.00 | 0.00 | 88 | |
| 20260901063434 | 59 | 272 | 0.0 | 0.0 | 0.00 | 0.00 | 0.00 | 88 | |
| 20260901063232 | 59 | 272 | 0.0 | 0.0 | 0.00 | 0.00 | 0.00 | 88 | |
| 20260901063030 | 60 | 272 | 0.0 | 0.0 | 0.00 | 0.00 | 0.00 | 88 | |
| 20260901062828 | 59 | 272 | 0.0 | 0.0 | 0.00 | 0.00 | 0.00 | 88 | |
| 20260901062626 | 59 | 272 | 0.0 | 0.0 | 0.00 | 0.00 | 0.00 | 88 | |
| 20260901062424 | 59 | 272 | 0.0 | 0.0 | 0.00 | 0.00 | 0.00 | 88 | |
| 20260901062222 | 60 | 272 | 0.0 | 0.0 | 0.00 | 0.00 | 0.00 | 87 | |
| 20260901062021 | 60 | 272 | 0.0 | 0.0 | 0.00 | 0.00 | 0.00 | 87 | |
| 20260901061617 | 60 | 272 | 0.0 | 0.0 | 0.00 | 0.00 | 0.00 | 87 | |
| 20260901061417 | 60 | 272 | 0.0 | 0.0 | 0.00 | 0.00 | 0.00 | 87 | |
| 20260901061213 | 60 | 272 | 0.0 | 0.0 | 0.00 | 0.00 | 0.00 | 87 | |
| 20260901061011 | 60 | 272 | 0.0 | 0.0 | 0.00 | 0.00 | 0.00 | 87 | |
| 20260901060809 | 60 | 272 | 0.0 | 0.0 | 0.00 | 0.00 | 0.00 | 87 | |
| 20260901060609 | 60 | 272 | 0.0 | 0.0 | 0.00 | 0.00 | 0.00 | 87 | |
| 20260901060405 | 60 | 272 | 0.0 | 0.0 | 0.00 | 0.00 | 0.00 | 87 | |
| 20260901060203 | 60 | 272 | 0.0 | 0.0 | 0.00 | 0.00 | 0.00 | 87 | |
| 20260901055800 | 60 | 272 | 0.0 | 0.0 | 0.00 | 0.00 | 0.00 | 87 | |
| 20260901055558 | 60 | 272 | 0.0 | 0.0 | 0.00 | 0.00 | 0.00 | 87 | |
| 20260901055357 | 60 | 272 | 0.0 | 0.0 | 0.00 | 0.00 | 0.00 | 86 | |
| 20260901055158 | 60 | 272 | 0.0 | 0.0 | 0.00 | 0.00 | 0.00 | 86 | |
| 20260901054952 | 60 | 272 | 0.0 | 0.0 | 0.00 | 0.00 | 0.00 | 86 | |
| 20260901054750 | 61 | 272 | 0.0 | 0.0 | 0.00 | 0.00 | 0.00 | 86 | |
| 20260901054548 | 61 | 272 | 0.0 | 0.0 | 0.00 | 0.00 | 0.00 | 86 | |
| 20260901054346 | 61 | 272 | 0.0 | 0.0 | 0.00 | 0.00 | 0.00 | 85 | |
| 20260901054144 | 61 | 272 | 0.0 | 0.0 | 0.00 | 0.00 | 0.00 | 85 | |
| 20260901053942 | 61 | 272 | 0.0 | 0.0 | 0.00 | 0.00 | 0.00 | 85 | |
| 20260901053741 | 61 | 272 | 0.0 | 0.0 | 0.00 | 0.00 | 0.00 | 85 | |
| 20260901053337 | 62 | 272 | 0.0 | 0.0 | 0.00 | 0.00 | 0.00 | 85 | |
| 20260901052933 | 62 | 272 | 0.0 | 0.0 | 0.00 | 0.00 | 0.00 | 85 | |
| 20260901052731 | 62 | 272 | 0.0 | 0.0 | 0.00 | 0.00 | 0.00 | 85 | |
| 20260901052529 | 62 | 272 | 0.0 | 0.0 | 0.00 | 0.00 | 0.00 | 85 | |
| 20260901052327 | 62 | 272 | 0.0 | 0.0 | 0.00 | 0.00 | 0.00 | 85 | |
| 20260901052125 | 62 | 272 | 0.0 | 0.0 | 0.00 | 0.00 | 0.00 | 85 | |
| 20260901051923 | 62 | 272 | 0.0 | 0.0 | 0.00 | 0.00 | 0.00 | 84 | |
| 20260901051721 | 62 | 272 | 0.0 | 0.0 | 0.00 | 0.00 | 0.00 | 84 | |
| 20260901051520 | 62 | 272 | 0.0 | 0.0 | 0.00 | 0.00 | 0.00 | 84 | |
| 20260901051318 | 62 | 272 | 0.0 | 0.0 | 0.00 | 0.00 | 0.00 | 84 | |
| 20260901051116 | 62 | 272 | 0.0 | 0.0 | 0.00 | 0.00 | 0.00 | 83 | |
| 20260901050914 | 63 | 272 | 0.0 | 0.0 | 0.00 | 0.00 | 0.00 | 83 | |
| 20260901050712 | 63 | 272 | 0.0 | 0.0 | 0.00 | 0.00 | 0.00 | 83 | |
| 20260901050510 | 63 | 272 | 0.0 | 0.0 | 0.00 | 0.00 | 0.00 | 83 | |
| 20260901050308 | 63 | 272 | 0.0 | 0.0 | 0.00 | 0.00 | 0.00 | 83 | |
| 20260901050106 | 63 | 272 | 0.0 | 0.0 | 0.00 | 0.00 | 0.00 | 83 | |
| 20260901045904 | 63 | 272 | 0.0 | 0.0 | 0.00 | 0.00 | 0.00 | 83 | |
| 20260901045702 | 63 | 272 | 0.0 | 0.0 | 0.00 | 0.00 | 0.00 | 84 | |
| 20260901045500 | 63 | 272 | 0.0 | 0.0 | 0.00 | 0.00 | 0.00 | 83 | |
| 20260901045259 | 64 | 272 | 0.0 | 0.0 | 0.00 | 0.00 | 0.00 | 84 | |
| 20260901045057 | 64 | 272 | 0.0 | 0.0 | 0.00 | 0.00 | 0.00 | 83 | |
| 20260901044855 | 64 | 272 | 0.0 | 0.0 | 0.00 | 0.00 | 0.00 | 83 | |
| 20260901044653 | 64 | 272 | 0.0 | 0.9 | 0.00 | 0.00 | 0.00 | 83 | |
| 20260901044451 | 64 | 272 | 0.0 | 0.9 | 0.00 | 0.00 | 0.00 | 83 | |
| 20260901044249 | 64 | 272 | 0.0 | 0.9 | 0.00 | 0.00 | 0.00 | 83 | |
| 20260901044047 | 64 | 272 | 0.0 | 2.6 | 0.00 | 0.00 | 0.00 | 82 | |
| 20260901043845 | 64 | 272 | 0.0 | 2.6 | 0.00 | 0.00 | 0.00 | 82 | |
| 20260901043643 | 64 | 286 | 1.7 | 0.0 | 0.00 | 0.00 | 0.00 | 82 | |
| 20260901043442 | 64 | 271 | 0.0 | 0.0 | 0.00 | 0.00 | 0.00 | 82 | |
| 20260901043240 | 64 | 271 | 0.0 | 0.0 | 0.00 | 0.00 | 0.00 | 81 | |
| 20260901043038 | 64 | 271 | 0.0 | 0.0 | 0.00 | 0.00 | 0.00 | 80 | |
| 20260901042636 | 64 | 271 | 0.0 | 0.0 | 0.00 | 0.00 | 0.00 | 80 | |
| 20260901042432 | 65 | 271 | 0.0 | 0.0 | 0.00 | 0.00 | 0.00 | 80 | |
| 20260901042230 | 65 | 271 | 0.0 | 0.9 | 0.00 | 0.00 | 0.00 | 79 | |
| 20260901042028 | 65 | 271 | 0.0 | 0.9 | 0.00 | 0.00 | 0.00 | 79 | |
| 20260901041826 | 65 | 271 | 0.0 | 0.9 | 0.00 | 0.00 | 0.00 | 79 | |
| 20260901041221 | 65 | 278 | 1.7 | 0.0 | 0.00 | 0.00 | 0.00 | 79 | |
| 20260901041019 | 65 | 278 | 0.0 | 0.0 | 0.00 | 0.00 | 0.00 | 79 | |
| 20260901040817 | 65 | 278 | 0.0 | 0.0 | 0.00 | 0.00 | 0.00 | 78 | |
| 20260901040615 | 65 | 278 | 0.0 | 0.0 | 0.00 | 0.00 | 0.00 | 78 | |
| 20260901040413 | 65 | 278 | 0.0 | 0.0 | 0.00 | 0.00 | 0.00 | 78 | |
| 20260901040211 | 65 | 278 | 0.0 | 0.0 | 0.00 | 0.00 | 0.00 | 78 | |
| 20260901040009 | 65 | 278 | 0.0 | 0.0 | 0.00 | 0.00 | 0.00 | 78 | |
| 20260901035807 | 65 | 278 | 0.0 | 0.0 | 0.00 | 0.00 | 0.00 | 77 | |
| 20260901035605 | 65 | 278 | 0.0 | 0.0 | 0.00 | 0.00 | 0.00 | 78 | |
| 20260901035403 | 65 | 278 | 0.0 | 0.0 | 0.00 | 0.00 | 0.00 | 77 | |
| 20260901035201 | 65 | 278 | 0.0 | 3.5 | 0.00 | 0.00 | 0.00 | 77 | |
| 20260901035000 | 66 | 278 | 0.0 | 3.5 | 0.00 | 0.00 | 0.00 | 77 | |
| 20260901034758 | 66 | 278 | 0.0 | 3.5 | 0.00 | 0.00 | 0.00 | 77 | |
| 20260901034556 | 66 | 281 | 0.0 | 0.9 | 0.00 | 0.00 | 0.00 | 77 | |
| 20260901034354 | 66 | 278 | 3.5 | 0.9 | 0.00 | 0.00 | 0.00 | 77 | |
| 20260901034152 | 66 | 251 | 0.0 | 0.0 | 0.00 | 0.00 | 0.00 | 76 | |
| 20260901033950 | 66 | 251 | 0.0 | 0.0 | 0.00 | 0.00 | 0.00 | 75 | |
| 20260901033748 | 66 | 251 | 0.0 | 0.0 | 0.00 | 0.00 | 0.00 | 75 | |
| 20260901033546 | 66 | 251 | 0.0 | 0.0 | 0.00 | 0.00 | 0.00 | 75 | |
| 20260901033344 | 66 | 251 | 0.0 | 0.0 | 0.00 | 0.00 | 0.00 | 75 | |
| 20260901033142 | 66 | 251 | 0.0 | 0.0 | 0.00 | 0.00 | 0.00 | 75 | |
| 20260901032941 | 67 | 251 | 0.0 | 0.0 | 0.00 | 0.00 | 0.00 | 75 | |
| 20260901032739 | 67 | 251 | 0.0 | 0.0 | 0.00 | 0.00 | 0.00 | 74 | |
| 20260901032537 | 67 | 251 | 0.0 | 0.0 | 0.00 | 0.00 | 0.00 | 73 | |
| 20260901032335 | 67 | 251 | 0.0 | 0.0 | 0.00 | 0.00 | 0.00 | 73 | |
| 20260901032133 | 67 | 251 | 0.0 | 0.0 | 0.00 | 0.00 | 0.00 | 73 | |
| 20260901031931 | 67 | 251 | 0.0 | 0.0 | 0.00 | 0.00 | 0.00 | 73 | |
| 20260901031729 | 67 | 251 | 0.0 | 0.0 | 0.00 | 0.00 | 0.00 | 72 | |
| 20260901031527 | 67 | 251 | 0.0 | 0.0 | 0.00 | 0.00 | 0.00 | 72 | |
| 20260901031325 | 67 | 251 | 0.0 | 0.0 | 0.00 | 0.00 | 0.00 | 72 | |
| 20260901031131 | 67 | 251 | 0.0 | 0.0 | 0.00 | 0.00 | 0.00 | 72 | |
| 20260901031123 | 67 | 251 | 0.0 | 0.0 | 0.00 | 0.00 | 0.00 | 72 | |
| 20260901030921 | 68 | 251 | 0.0 | 0.0 | 0.00 | 0.00 | 0.00 | 72 | |
| 20260901030719 | 68 | 251 | 0.0 | 0.0 | 0.00 | 0.00 | 0.00 | 72 | |
| 20260901030518 | 68 | 251 | 0.0 | 0.0 | 0.00 | 0.00 | 0.00 | 72 | |
| 20260901030316 | 68 | 251 | 0.0 | 0.0 | 0.00 | 0.00 | 0.00 | 71 | |
| 20260901030114 | 68 | 251 | 0.0 | 0.0 | 0.00 | 0.00 | 0.00 | 71 | |
| 20260901025912 | 68 | 251 | 0.0 | 0.0 | 0.00 | 0.00 | 0.00 | 71 | |
| 20260901025710 | 68 | 251 | 0.0 | 0.0 | 0.00 | 0.00 | 0.00 | 70 | |
| 20260901025508 | 68 | 251 | 0.0 | 0.0 | 0.00 | 0.00 | 0.00 | 71 | |
| 20260901025306 | 68 | 251 | 0.0 | 0.0 | 0.00 | 0.00 | 0.00 | 70 | |
| 20260901025104 | 68 | 251 | 0.0 | 2.6 | 0.00 | 0.00 | 0.00 | 70 | |
| 20260901024902 | 68 | 251 | 0.0 | 2.6 | 0.00 | 0.00 | 0.00 | 70 | |
| 20260901024702 | 68 | 251 | 0.0 | 2.6 | 0.00 | 0.00 | 0.00 | 70 | |
| 20260901024459 | 68 | 292 | 1.7 | 2.6 | 0.00 | 0.00 | 0.00 | 70 | |
| 20260901024257 | 68 | 303 | 2.6 | 2.6 | 0.00 | 0.00 | 0.00 | 69 | |
| 20260901023853 | 69 | 208 | 0.0 | 0.0 | 0.00 | 0.00 | 0.00 | 68 | |
| 20260901023651 | 69 | 208 | 0.0 | 2.6 | 0.00 | 0.00 | 0.00 | 68 | |
| 20260901023449 | 69 | 208 | 0.0 | 2.6 | 0.00 | 0.00 | 0.00 | 68 | |
| 20260901023247 | 69 | 208 | 0.0 | 2.6 | 0.00 | 0.00 | 0.00 | 67 | |
| 20260901023047 | 69 | 222 | 0.0 | 5.2 | 0.00 | 0.00 | 0.00 | 67 | |
| 20260901022843 | 70 | 229 | 0.0 | 5.2 | 0.00 | 0.00 | 0.00 | 68 | |
| 20260901022641 | 70 | 285 | 2.6 | 6.1 | 0.00 | 0.00 | 0.00 | 67 | |
| 20260901022440 | 70 | 282 | 3.5 | 6.1 | 0.00 | 0.00 | 0.00 | 67 | |
| 20260901022237 | 70 | 268 | 2.6 | 5.2 | 0.00 | 0.00 | 0.00 | 66 | |
| 20260901022035 | 70 | 253 | 3.5 | 5.2 | 0.00 | 0.00 | 0.00 | 66 | |
| 20260901021833 | 70 | 277 | 1.7 | 5.2 | 0.00 | 0.00 | 0.00 | 65 | |
| 20260901021631 | 71 | 279 | 3.5 | 7.8 | 0.00 | 0.00 | 0.00 | 65 | |
| 20260901021429 | 71 | 265 | 4.3 | 7.8 | 0.00 | 0.00 | 0.00 | 64 | |
| 20260901021227 | 71 | 281 | 2.6 | 7.8 | 0.00 | 0.00 | 0.00 | 64 | |
| 20260901020824 | 71 | 274 | 4.3 | 7.8 | 0.00 | 0.00 | 0.00 | 63 | |
| 20260901020622 | 71 | 288 | 2.6 | 7.0 | 0.00 | 0.00 | 0.00 | 63 | |
| 20260901020420 | 72 | 292 | 3.5 | 7.0 | 0.00 | 0.00 | 0.00 | 62 | |
| 20260901020218 | 72 | 270 | 4.3 | 7.0 | 0.00 | 0.00 | 0.00 | 62 | |
| 20260901020016 | 72 | 265 | 3.5 | 7.0 | 0.00 | 0.00 | 0.00 | 62 | |
| 20260901015814 | 72 | 278 | 5.2 | 7.0 | 0.00 | 0.00 | 0.00 | 62 | |
| 20260901015612 | 72 | 265 | 7.0 | 6.1 | 0.00 | 0.00 | 0.00 | 60 | |
| 20260901015410 | 73 | 268 | 2.6 | 6.1 | 0.00 | 0.00 | 0.00 | 60 | |
| 20260901015208 | 73 | 284 | 3.5 | 7.0 | 0.00 | 0.00 | 0.00 | 60 | |
| 20260901015007 | 73 | 201 | 0.9 | 7.0 | 0.00 | 0.00 | 0.00 | 60 | |
| 20260901014807 | 73 | 277 | 1.7 | 7.0 | 0.00 | 0.00 | 0.00 | 59 | |
| 20260901014603 | 73 | 260 | 4.3 | 6.1 | 0.00 | 0.00 | 0.00 | 59 | |
| 20260901014400 | 73 | 277 | 4.3 | 6.1 | 0.00 | 0.00 | 0.00 | 59 | |
| 20260901014158 | 74 | 262 | 5.2 | 7.8 | 0.00 | 0.00 | 0.00 | 59 | |
| 20260901013956 | 73 | 262 | 2.6 | 7.8 | 0.00 | 0.00 | 0.00 | 59 | |
| 20260901013754 | 74 | 282 | 3.5 | 7.8 | 0.00 | 0.00 | 0.00 | 59 | |
| 20260901013552 | 74 | 267 | 5.2 | 7.8 | 0.00 | 0.00 | 0.00 | 58 | |
| 20260901013148 | 74 | 265 | 6.1 | 8.7 | 0.00 | 0.00 | 0.00 | 58 | |
| 20260901012946 | 74 | 270 | 4.3 | 8.7 | 0.00 | 0.00 | 0.00 | 57 | |
| 20260901012746 | 74 | 279 | 3.5 | 7.8 | 0.00 | 0.00 | 0.00 | 58 | |
| 20260901012544 | 74 | 268 | 7.0 | 7.8 | 0.00 | 0.00 | 0.00 | 57 | |
| 20260901012340 | 75 | 261 | 5.2 | 7.8 | 0.00 | 0.00 | 0.00 | 57 | |
| 20260901012140 | 75 | 244 | 5.2 | 7.8 | 0.00 | 0.00 | 0.00 | 57 | |
| 20260901011936 | 75 | 255 | 5.2 | 7.8 | 0.00 | 0.00 | 0.00 | 57 | |
| 20260901011736 | 75 | 260 | 4.3 | 7.8 | 0.00 | 0.00 | 0.00 | 57 | |
| 20260901011533 | 75 | 277 | 7.0 | 7.8 | 0.00 | 0.00 | 0.00 | 57 | |
| 20260901011131 | 75 | 262 | 6.1 | 10.4 | 0.00 | 0.00 | 0.00 | 57 | |
| 20260901010927 | 75 | 241 | 7.0 | 10.4 | 0.00 | 0.00 | 0.00 | 57 | |
| 20260901010726 | 75 | 286 | 6.1 | 11.3 | 0.00 | 0.00 | 0.00 | 56 | |
| 20260901005917 | 75 | 271 | 8.7 | 10.4 | 0.00 | 0.00 | 0.00 | 56 | |
| 20260901005715 | 75 | 254 | 6.1 | 10.4 | 0.00 | 0.00 | 0.00 | 56 | |
| 20260901005513 | 76 | 270 | 7.0 | 10.4 | 0.00 | 0.00 | 0.00 | 55 | |
| 20260901005311 | 76 | 281 | 4.3 | 10.4 | 0.00 | 0.00 | 0.00 | 55 | |
| 20260901005109 | 76 | 282 | 5.2 | 10.4 | 0.00 | 0.00 | 0.00 | 55 | |
| 20260901004907 | 76 | 279 | 6.1 | 10.4 | 0.00 | 0.00 | 0.00 | 55 | |
| 20260901004707 | 76 | 281 | 0.9 | 11.3 | 0.00 | 0.00 | 0.00 | 55 | |
| 20260901004503 | 76 | 265 | 7.0 | 11.3 | 0.00 | 0.00 | 0.00 | 54 | |
| 20260901004301 | 76 | 271 | 7.8 | 11.3 | 0.00 | 0.00 | 0.00 | 54 | |
| 20260901004059 | 76 | 267 | 9.6 | 11.3 | 0.00 | 0.00 | 0.00 | 56 | |
| 20260901003857 | 76 | 267 | 7.0 | 11.3 | 0.00 | 0.00 | 0.00 | 55 | |
| 20260901003656 | 76 | 271 | 7.0 | 13.9 | 0.00 | 0.00 | 0.00 | 55 | |
| 20260901003454 | 76 | 265 | 8.7 | 13.9 | 0.00 | 0.00 | 0.00 | 56 | |
| 20260901003253 | 76 | 255 | 6.1 | 13.9 | 0.00 | 0.00 | 0.00 | 56 | |
| 20260901003052 | 76 | 254 | 7.8 | 12.2 | 0.00 | 0.00 | 0.00 | 56 | |
| 20260901002848 | 76 | 265 | 8.7 | 12.2 | 0.00 | 0.00 | 0.00 | 55 | |
| 20260901002647 | 77 | 261 | 10.4 | 12.2 | 0.00 | 0.00 | 0.00 | 55 | |
| 20260901002444 | 76 | 267 | 7.8 | 12.2 | 0.00 | 0.00 | 0.00 | 56 | |
| 20260901002242 | 77 | 261 | 6.1 | 13.9 | 0.00 | 0.00 | 0.00 | 55 | |
| 20260901002042 | 77 | 250 | 6.1 | 13.9 | 0.00 | 0.00 | 0.00 | 55 | |
| 20260901001838 | 77 | 274 | 10.4 | 13.9 | 0.00 | 0.00 | 0.00 | 54 | |
| 20260901001436 | 77 | 264 | 6.1 | 15.6 | 0.00 | 0.00 | 0.00 | 56 | |
| 20260901001234 | 77 | 255 | 9.6 | 13.0 | 0.00 | 0.00 | 0.00 | 56 | |
| 20260901001030 | 77 | 275 | 13.9 | 13.0 | 0.00 | 0.00 | 0.00 | 55 | |
| 20260901000828 | 77 | 253 | 7.8 | 13.0 | 0.00 | 0.00 | 0.00 | 55 | |
| 20260901000626 | 77 | 246 | 7.0 | 14.8 | 0.00 | 0.00 | 0.00 | 55 | |
| 20260901000225 | 77 | 251 | 11.3 | 13.0 | 0.00 | 0.00 | 0.00 | 54 | |
| 20260901000023 | 78 | 260 | 10.4 | 13.0 | 0.00 | 0.00 | 0.00 | 53 | |
| 20260831235820 | 78 | 250 | 6.1 | 13.0 | 0.00 | 0.00 | 0.00 | 53 | |
| 20260831235618 | 78 | 270 | 8.7 | 14.8 | 0.00 | 0.00 | 0.00 | 53 | |
| 20260831235415 | 78 | 262 | 10.4 | 14.8 | 0.00 | 0.00 | 0.00 | 53 | |
| 20260831235213 | 78 | 254 | 9.6 | 13.9 | 0.00 | 0.00 | 0.00 | 53 | |
| 20260831235013 | 79 | 264 | 7.8 | 13.9 | 0.00 | 0.00 | 0.00 | 53 | |
| 20260831234809 | 78 | 257 | 6.1 | 13.9 | 0.00 | 0.00 | 0.00 | 54 | |
| 20260831234608 | 78 | 268 | 8.7 | 15.6 | 0.00 | 0.00 | 0.00 | 54 | |
| 20260831234405 | 78 | 265 | 7.0 | 15.6 | 0.00 | 0.00 | 0.00 | 54 | |
| 20260831234205 | 78 | 275 | 13.0 | 13.9 | 0.00 | 0.00 | 0.00 | 54 | |
| 20260831234001 | 79 | 264 | 10.4 | 13.9 | 0.00 | 0.00 | 0.00 | 53 | |
| 20260831233759 | 79 | 262 | 9.6 | 13.9 | 0.00 | 0.00 | 0.00 | 54 | |
| 20260831233357 | 79 | 248 | 11.3 | 13.0 | 0.00 | 0.00 | 0.00 | 53 | |
| 20260831233155 | 79 | 255 | 3.5 | 13.9 | 0.00 | 0.00 | 0.00 | 53 | |
| 20260831232951 | 79 | 279 | 6.1 | 13.9 | 0.00 | 0.00 | 0.00 | 54 | |
| 20260831232749 | 79 | 272 | 12.2 | 13.9 | 0.00 | 0.00 | 0.00 | 53 | |
| 20260831232548 | 79 | 248 | 11.3 | 12.2 | 0.00 | 0.00 | 0.00 | 52 | |
| 20260831232348 | 80 | 251 | 10.4 | 12.2 | 0.00 | 0.00 | 0.00 | 51 | |
| 20260831232144 | 80 | 265 | 4.3 | 11.3 | 0.00 | 0.00 | 0.00 | 51 | |
| 20260831231941 | 80 | 258 | 10.4 | 11.3 | 0.00 | 0.00 | 0.00 | 51 | |
| 20260831231741 | 80 | 251 | 7.0 | 13.0 | 0.00 | 0.00 | 0.00 | 51 | |
| 20260831231540 | 80 | 277 | 7.8 | 13.0 | 0.00 | 0.00 | 0.00 | 52 | |
| 20260831231336 | 79 | 267 | 7.8 | 13.0 | 0.00 | 0.00 | 0.00 | 54 | |
| 20260831231135 | 80 | 277 | 3.5 | 12.2 | 0.00 | 0.00 | 0.00 | 54 | |
| 20260831230933 | 80 | 258 | 9.6 | 12.2 | 0.00 | 0.00 | 0.00 | 53 | |
| 20260831230732 | 80 | 260 | 9.6 | 13.9 | 0.00 | 0.00 | 0.00 | 53 | |
| 20260831230530 | 80 | 264 | 7.0 | 13.9 | 0.00 | 0.00 | 0.00 | 54 | |
| 20260831230328 | 80 | 251 | 7.8 | 13.9 | 0.00 | 0.00 | 0.00 | 53 | |
| 20260831230126 | 80 | 277 | 8.7 | 13.9 | 0.00 | 0.00 | 0.00 | 53 | |
| 20260831225720 | 80 | 272 | 7.8 | 14.8 | 0.00 | 0.00 | 0.00 | 54 | |
| 20260831225518 | 80 | 272 | 9.6 | 14.8 | 0.00 | 0.00 | 0.00 | 54 | |
| 20260831225318 | 80 | 254 | 8.7 | 14.8 | 0.00 | 0.00 | 0.00 | 54 | |
| 20260831225114 | 79 | 254 | 9.6 | 12.2 | 0.00 | 0.00 | 0.00 | 54 | |
| 20260831224912 | 80 | 233 | 6.1 | 12.2 | 0.00 | 0.00 | 0.00 | 54 | |
| 20260831224514 | 80 | 260 | 9.6 | 12.2 | 0.00 | 0.00 | 0.00 | 53 | |
| 20260831224308 | 80 | 255 | 7.0 | 12.2 | 0.00 | 0.00 | 0.00 | 51 | |
| 20260831223903 | 80 | 248 | 5.2 | 10.4 | 0.00 | 0.00 | 0.00 | 51 | |
| 20260831223703 | 80 | 239 | 8.7 | 12.2 | 0.00 | 0.00 | 0.00 | 51 | |
| 20260831223501 | 80 | 255 | 7.0 | 12.2 | 0.00 | 0.00 | 0.00 | 51 | |
| 20260831223258 | 80 | 268 | 9.6 | 12.2 | 0.00 | 0.00 | 0.00 | 49 | |
| 20260831223057 | 80 | 272 | 4.3 | 13.9 | 0.00 | 0.00 | 0.00 | 51 | |
| 20260831222853 | 80 | 271 | 5.2 | 13.9 | 0.00 | 0.00 | 0.00 | 51 | |
| 20260831222651 | 80 | 250 | 7.8 | 11.3 | 0.00 | 0.00 | 0.00 | 49 | |
| 20260831222450 | 81 | 247 | 7.8 | 11.3 | 0.00 | 0.00 | 0.00 | 50 | |
| 20260831222249 | 81 | 264 | 7.0 | 11.3 | 0.00 | 0.00 | 0.00 | 51 | |
| 20260831221843 | 80 | 281 | 7.8 | 13.0 | 0.00 | 0.00 | 0.00 | 52 | |
| 20260831221641 | 80 | 254 | 7.0 | 17.4 | 0.00 | 0.00 | 0.00 | 52 | |
| 20260831221441 | 80 | 267 | 7.8 | 17.4 | 0.00 | 0.00 | 0.00 | 53 | |
| 20260831221239 | 79 | 255 | 12.2 | 16.5 | 0.00 | 0.00 | 0.00 | 51 | |
| 20260831221036 | 80 | 275 | 15.6 | 16.5 | 0.00 | 0.00 | 0.00 | 52 | |
| 20260831220835 | 80 | 233 | 10.4 | 16.5 | 0.00 | 0.00 | 0.00 | 53 | |
| 20260831220633 | 80 | 270 | 9.6 | 13.9 | 0.00 | 0.00 | 0.00 | 52 | |
| 20260831220431 | 80 | 271 | 13.0 | 13.9 | 0.00 | 0.00 | 0.00 | 52 | |
| 20260831220227 | 81 | 253 | 6.1 | 12.2 | 0.00 | 0.00 | 0.00 | 53 | |
| 20260831220027 | 80 | 255 | 10.4 | 12.2 | 0.00 | 0.00 | 0.00 | 54 | |
| 20260831215825 | 80 | 279 | 13.9 | 12.2 | 0.00 | 0.00 | 0.00 | 52 | |
| 20260831215622 | 80 | 278 | 7.8 | 13.9 | 0.00 | 0.00 | 0.00 | 53 | |
| 20260831215219 | 80 | 270 | 7.8 | 14.8 | 0.00 | 0.00 | 0.00 | 54 | |
| 20260831215016 | 80 | 265 | 7.0 | 14.8 | 0.00 | 0.00 | 0.00 | 53 | |
| 20260831214815 | 80 | 246 | 10.4 | 14.8 | 0.00 | 0.00 | 0.00 | 52 | |
| 20260831214412 | 80 | 267 | 7.8 | 12.2 | 0.00 | 0.00 | 0.00 | 53 | |
| 20260831214007 | 81 | 265 | 7.0 | 13.0 | 0.00 | 0.00 | 0.00 | 52 | |
| 20260831213804 | 81 | 255 | 9.6 | 13.0 | 0.00 | 0.00 | 0.00 | 52 | |
| 20260831213604 | 81 | 240 | 7.0 | 11.3 | 0.00 | 0.00 | 0.00 | 52 | |
| 20260831213402 | 81 | 291 | 7.0 | 11.3 | 0.00 | 0.00 | 0.00 | 52 | |
| 20260831212956 | 81 | 268 | 9.6 | 12.2 | 0.00 | 0.00 | 0.00 | 53 | |
| 20260831212755 | 80 | 255 | 9.6 | 12.2 | 0.00 | 0.00 | 0.00 | 55 | |
| 20260831212554 | 80 | 251 | 7.8 | 14.8 | 0.00 | 0.00 | 0.00 | 55 | |
| 20260831212352 | 80 | 271 | 4.3 | 14.8 | 0.00 | 0.00 | 0.00 | 55 | |
| 20260831212150 | 80 | 264 | 12.2 | 13.9 | 0.00 | 0.00 | 0.00 | 54 | |
| 20260831211948 | 80 | 236 | 9.6 | 13.9 | 0.00 | 0.00 | 0.00 | 55 | |
| 20260831211746 | 80 | 277 | 11.3 | 13.0 | 0.00 | 0.00 | 0.00 | 55 | |
| 20260831211544 | 80 | 275 | 7.0 | 13.0 | 0.00 | 0.00 | 0.00 | 56 | |
| 20260831211343 | 80 | 264 | 6.1 | 13.0 | 0.00 | 0.00 | 0.00 | 56 | |
| 20260831211140 | 80 | 270 | 8.7 | 16.5 | 0.00 | 0.00 | 0.00 | 55 | |
| 20260831210938 | 80 | 236 | 3.5 | 16.5 | 0.00 | 0.00 | 0.00 | 56 | |
| 20260831210736 | 80 | 268 | 7.8 | 13.9 | 0.00 | 0.00 | 0.00 | 56 | |
| 20260831210535 | 80 | 260 | 11.3 | 13.9 | 0.00 | 0.00 | 0.00 | 55 | |
| 20260831210331 | 80 | 254 | 7.8 | 13.9 | 0.00 | 0.00 | 0.00 | 56 | |
| 20260831210132 | 80 | 291 | 7.0 | 16.5 | 0.00 | 0.00 | 0.00 | 56 | |
| 20260831205929 | 80 | 268 | 10.4 | 16.5 | 0.00 | 0.00 | 0.00 | 55 | |
| 20260831205725 | 80 | 274 | 5.2 | 15.6 | 0.00 | 0.00 | 0.00 | 56 | |
| 20260831205523 | 79 | 279 | 8.7 | 15.6 | 0.00 | 0.00 | 0.00 | 56 | |
| 20260831205121 | 79 | 260 | 14.8 | 13.9 | 0.00 | 0.00 | 0.00 | 57 | |
| 20260831204919 | 80 | 275 | 10.4 | 13.9 | 0.00 | 0.00 | 0.00 | 56 | |
| 20260831204717 | 80 | 272 | 7.0 | 17.4 | 0.00 | 0.00 | 0.00 | 56 | |
| 20260831204515 | 80 | 274 | 6.1 | 17.4 | 0.00 | 0.00 | 0.00 | 56 | |
| 20260831204313 | 80 | 278 | 10.4 | 17.4 | 0.00 | 0.00 | 0.00 | 55 | |
| 20260831204112 | 80 | 270 | 10.4 | 13.9 | 0.00 | 0.00 | 0.00 | 55 | |
| 20260831203909 | 80 | 261 | 11.3 | 13.9 | 0.00 | 0.00 | 0.00 | 54 |